Date String (YYYY-MM-DD hh:mm:ss) UTC,Instrument flags,Ambient pressure (hPa),Sample flow (lpm),Bypass flow (lpm),Sample temperature (°C),Ambient temperature (°C),ASC tube jacket temperature (°C),LED temperature (°C),Box temperature (°C),Sample RH (%),Span deviation,Mass concentration (μg/m³),Mass concentration (μg/m³),Mass concentration (μg/m³)
DateTimeUTC,F1_M11,P_M11,Q1_M11,Q2_M11,T1_M11,T2_M11,T3_M11,T4_M11,T5_M11,U1_M11,ZSPAN_M11,X0_M11,X2_M11,X1_M11
2021-09-09 02:00:00,,0831.1,5.00,0.00,29.4,26.5,00.0,38.3,30.8,19.1,0002.4,0052.80,0032.02,0029.10
2021-09-09 02:01:00,,0831.1,5.00,0.00,29.2,25.3,00.0,38.3,30.5,19.2,0002.4,0052.64,0032.03,0029.05
2021-09-09 02:02:00,,0831.1,5.01,0.00,29.1,25.5,00.0,38.3,30.5,19.2,0002.3,0052.59,0031.97,0029.06
2021-09-09 02:03:00,,0831.1,4.99,0.00,29.0,26.0,00.0,38.2,30.6,19.4,0002.3,0053.26,0032.02,0029.09
2021-09-09 02:04:00,,0831.1,5.01,0.00,29.0,26.5,00.0,38.2,30.7,19.3,0002.3,0053.21,0032.09,0029.12
2021-09-09 02:05:00,,0831.1,4.99,0.00,29.0,27.0,00.0,38.2,30.8,19.3,0002.2,0052.36,0032.17,0029.17
2021-09-09 02:06:00,,0831.1,5.01,0.00,29.1,27.3,00.0,38.2,30.9,19.3,0002.4,0051.77,0032.15,0029.21
2021-09-09 02:07:00,,0831.1,5.00,0.00,29.1,27.7,00.0,38.2,30.9,19.3,0002.5,0052.48,0032.12,0029.24
2021-09-09 02:08:00,,0831.2,5.01,0.00,29.2,27.9,00.0,38.2,31.0,19.3,0002.6,0053.62,0032.14,0029.25
2021-09-09 02:09:00,,0831.2,5.00,0.00,29.2,28.1,00.0,38.2,31.1,19.2,0002.8,0053.71,0032.15,0029.29
2021-09-09 02:10:00,,0831.2,5.01,0.00,29.3,28.3,00.0,38.2,31.2,19.1,0002.5,0052.67,0032.10,0029.28
2021-09-09 02:11:00,,0831.2,5.00,0.00,29.3,28.5,00.0,38.3,31.2,19.1,0002.4,0051.98,0032.15,0029.31
2021-09-09 02:12:00,,0831.2,5.00,0.00,29.4,28.6,00.0,38.3,31.3,19.1,0002.4,0050.90,0032.15,0029.34
2021-09-09 02:13:00,,0831.2,4.99,0.00,29.4,28.7,00.0,38.3,31.3,19.0,0002.5,0050.98,0032.17,0029.36
2021-09-09 02:14:00,,0831.2,5.00,0.00,29.5,28.8,00.0,38.4,31.4,18.9,0002.5,0051.60,0032.18,0029.38
2021-09-09 02:15:00,,0831.2,5.01,0.00,29.5,27.5,00.0,38.4,31.1,18.9,0002.5,0050.92,0032.15,0029.43
2021-09-09 02:16:00,,0831.2,5.00,0.00,29.3,25.5,00.0,38.3,30.5,19.1,0002.7,0051.15,0032.18,0029.46
2021-09-09 02:17:00,,0831.2,5.00,0.00,29.1,25.2,00.0,38.3,30.4,19.3,0002.6,0052.62,0032.24,0029.48
2021-09-09 02:18:00,,0831.2,4.99,0.00,29.0,25.7,00.0,38.3,30.5,19.4,0002.4,0053.14,0032.34,0029.50
2021-09-09 02:19:00,,0831.2,5.01,0.00,29.0,26.2,00.0,38.2,30.6,19.5,0002.1,0052.19,0032.37,0029.54
2021-09-09 02:20:00,,0831.2,4.99,0.00,29.0,26.7,00.0,38.2,30.7,19.5,0001.9,0051.26,0032.35,0029.54
2021-09-09 02:21:00,,0831.2,5.01,0.00,29.0,27.1,00.0,38.2,30.8,19.5,0002.0,0051.63,0032.43,0029.58
2021-09-09 02:22:00,,0831.2,4.99,0.00,29.1,27.5,00.0,38.2,30.9,19.5,0002.2,0052.97,0032.45,0029.57
2021-09-09 02:23:00,,0831.2,5.00,0.00,29.1,27.8,00.0,38.2,31.0,19.5,0002.1,0053.81,0032.55,0029.59
2021-09-09 02:24:00,,0831.2,5.00,0.00,29.2,28.0,00.0,38.2,31.0,19.4,0001.8,0054.47,0032.63,0029.63
2021-09-09 02:25:00,,0831.2,5.01,0.00,29.2,28.2,00.0,38.2,31.1,19.3,0001.6,0052.94,0032.56,0029.62
2021-09-09 02:26:00,,0831.3,5.01,0.00,29.3,28.3,00.0,38.2,31.1,19.3,0001.8,0052.53,0032.54,0029.58
2021-09-09 02:27:00,,0831.3,4.99,0.00,29.3,28.5,00.0,38.3,31.2,19.2,0001.6,0053.17,0032.54,0029.58
2021-09-09 02:28:00,,0831.3,5.00,0.00,29.4,28.6,00.0,38.3,31.3,19.2,0001.7,0053.23,0032.54,0029.61
2021-09-09 02:29:00,,0831.3,5.01,0.00,29.4,28.7,00.0,38.3,31.3,19.1,0002.0,0052.93,0032.52,0029.61
2021-09-09 02:30:00,,0831.3,5.00,0.00,29.5,28.8,00.0,38.4,31.4,19.1,0002.1,0053.92,0032.56,0029.65
2021-09-09 02:31:00,,0831.3,4.99,0.00,29.5,28.5,00.0,38.4,31.3,19.0,0002.3,0053.79,0032.62,0029.68
2021-09-09 02:32:00,,0831.3,5.00,0.00,29.4,26.8,00.0,38.4,30.9,19.1,0002.3,0053.12,0032.54,0029.64
2021-09-09 02:33:00,,0831.4,5.01,0.00,29.3,26.3,00.0,38.4,30.8,19.2,0002.2,0053.51,0032.57,0029.69
2021-09-09 02:34:00,,0831.3,5.00,0.00,29.3,26.6,00.0,38.4,30.8,19.2,0002.1,0053.79,0032.53,0029.66
2021-09-09 02:35:00,,0831.4,4.99,0.00,29.2,26.9,00.0,38.3,30.9,19.3,0002.4,0054.61,0032.48,0029.62
2021-09-09 02:36:00,,0831.4,5.01,0.00,29.2,27.3,00.0,38.3,30.9,19.3,0002.5,0055.16,0032.47,0029.58
2021-09-09 02:37:00,,0831.4,5.00,0.00,29.3,27.7,00.0,38.3,31.0,19.2,0002.4,0055.61,0032.45,0029.55
2021-09-09 02:38:00,,0831.5,4.99,0.00,29.3,27.9,00.0,38.3,31.1,19.2,0002.5,0054.86,0032.39,0029.50
2021-09-09 02:39:00,,0831.5,5.01,0.00,29.3,28.2,00.0,38.3,31.2,19.1,0002.4,0054.08,0032.36,0029.45
2021-09-09 02:40:00,,0831.5,5.00,0.00,29.4,28.3,00.0,38.4,31.2,19.1,0002.3,0054.43,0032.35,0029.44
2021-09-09 02:41:00,,0831.5,5.00,0.00,29.4,28.5,00.0,38.4,31.3,19.0,0002.3,0054.42,0032.34,0029.40
2021-09-09 02:42:00,,0831.5,5.00,0.00,29.5,28.6,00.0,38.4,31.3,19.0,0002.3,0054.75,0032.28,0029.33
2021-09-09 02:43:00,,0831.6,5.00,0.00,29.5,28.7,00.0,38.4,31.4,18.9,0002.1,0055.13,0032.28,0029.33
2021-09-09 02:44:00,,0831.6,4.98,0.00,29.5,28.2,00.0,38.5,31.2,18.9,0002.0,0054.30,0032.20,0029.30
2021-09-09 02:45:00,,0831.6,5.00,0.00,29.4,25.9,00.0,38.4,30.6,19.0,0002.0,0053.61,0032.14,0029.29
2021-09-09 02:46:00,,0831.6,4.99,0.00,29.2,25.1,00.0,38.4,30.4,19.2,0001.9,0051.76,0032.16,0029.32
2021-09-09 02:47:00,,0831.6,5.00,0.00,29.1,25.5,00.0,38.4,30.5,19.3,0001.8,0051.23,0032.11,0029.33
2021-09-09 02:48:00,,0831.6,5.01,0.00,29.0,26.0,00.0,38.3,30.5,19.4,0001.8,0051.35,0032.14,0029.36
2021-09-09 02:49:00,,0831.6,4.99,0.00,29.0,26.5,00.0,38.3,30.6,19.3,0001.6,0051.84,0032.18,0029.36
2021-09-09 02:50:00,,0831.7,5.01,0.00,29.0,27.0,00.0,38.2,30.7,19.3,0001.7,0051.36,0032.15,0029.35
2021-09-09 02:51:00,,0831.7,4.99,0.00,29.1,27.3,00.0,38.2,30.8,19.3,0001.7,0050.27,0032.13,0029.33
2021-09-09 02:52:00,,0831.7,5.01,0.00,29.1,27.6,00.0,38.2,30.9,19.3,0001.7,0049.70,0032.14,0029.33
2021-09-09 02:53:00,,0831.8,5.01,0.00,29.2,27.9,00.0,38.2,31.0,19.2,0001.6,0049.24,0032.19,0029.39
2021-09-09 02:54:00,,0831.7,5.00,0.00,29.2,28.1,00.0,38.3,31.0,19.2,0001.7,0050.61,0032.26,0029.45
2021-09-09 02:55:00,,0831.7,4.98,0.00,29.3,28.2,00.0,38.3,31.1,19.1,0001.8,0051.46,0032.33,0029.45
2021-09-09 02:56:00,,0831.7,5.00,0.00,29.3,28.4,00.0,38.3,31.2,19.1,0002.1,0051.44,0032.31,0029.49
2021-09-09 02:57:00,,0831.7,5.01,0.00,29.4,28.5,00.0,38.3,31.2,19.0,0002.1,0052.64,0032.35,0029.53
2021-09-09 02:58:00,,0831.8,5.00,0.00,29.4,28.6,00.0,38.3,31.3,19.0,0002.0,0052.56,0032.50,0029.58
2021-09-09 02:59:00,,0831.8,5.00,0.00,29.4,28.7,00.0,38.4,31.3,18.9,0002.0,0051.66,0032.54,0029.65
